Retour au catalogue

STARLINK-37052

ActifCommunicationsVLEO
NORAD 68179·PAYLOAD·🇺🇸 United States

Lancé Mar 14, 2026 depuis Vandenberg Space Force Base

Loading…

Prochains Passages (prochaines 24 heures)

TLE

FraisSource: CelesTrak SupGP

Époque: Sep 15, 2026, 04:06 UTC

1 68179C 26050N   26258.17131944 -.00020189  00000+0 -59646-3 0  2589
2 68179  53.1572 102.4995 0001231  74.0014 222.1274 15.34401896    11

Suivez STARLINK-37052 en temps réel avec AllMySat

Download on the App Store